TimeEDT,TemperatureF,Dew PointF,Humidity,Sea Level PressureIn,VisibilityMPH,Wind Direction,Wind SpeedMPH,Gust SpeedMPH,PrecipitationIn,Events,Conditions,WindDirDegrees,DateUTC
12:52 AM,61.0,54.0,78,30.13,10.0,South,9.2,-,N/A,,Clear,190,2012-10-05 04:52:00
1:52 AM,60.1,54.0,80,30.14,10.0,SSW,8.1,-,N/A,,Partly Cloudy,210,2012-10-05 05:52:00
2:52 AM,60.1,54.0,80,30.12,10.0,South,8.1,-,N/A,,Partly Cloudy,190,2012-10-05 06:52:00
3:52 AM,59.0,53.6,82,30.13,10.0,SSW,8.1,-,N/A,,Partly Cloudy,200,2012-10-05 07:52:00
4:52 AM,59.0,55.0,87,30.11,9.0,SSW,6.9,-,N/A,,Clear,200,2012-10-05 08:52:00
5:52 AM,57.9,54.0,87,30.11,8.0,SSW,5.8,-,N/A,,Clear,200,2012-10-05 09:52:00
6:52 AM,57.9,54.0,87,30.12,7.0,SSW,3.5,-,N/A,,Clear,210,2012-10-05 10:52:00
7:52 AM,57.0,54.0,89,30.13,6.0,WSW,3.5,-,N/A,,Scattered Clouds,240,2012-10-05 11:52:00
8:52 AM,59.0,55.9,90,30.11,7.0,Calm,Calm,-,N/A,,Scattered Clouds,0,2012-10-05 12:52:00
9:52 AM,64.0,57.0,78,30.11,8.0,WSW,6.9,-,N/A,,Scattered Clouds,250,2012-10-05 13:52:00
10:52 AM,66.0,57.9,75,30.10,8.0,South,4.6,-,N/A,,Partly Cloudy,190,2012-10-05 14:52:00
11:52 AM,69.1,57.9,68,30.10,8.0,West,5.8,-,N/A,,Scattered Clouds,280,2012-10-05 15:52:00
12:52 PM,71.1,59.0,66,30.09,9.0,Variable,5.8,-,N/A,,Scattered Clouds,0,2012-10-05 16:52:00
1:52 PM,72.0,59.0,64,30.07,9.0,SW,8.1,-,N/A,,Mostly Cloudy,230,2012-10-05 17:52:00
2:52 PM,73.0,57.9,59,30.02,9.0,SW,6.9,-,N/A,,Mostly Cloudy,220,2012-10-05 18:52:00
3:52 PM,73.0,57.0,57,30.00,9.0,SW,8.1,-,N/A,,Mostly Cloudy,230,2012-10-05 19:52:00
4:52 PM,72.0,57.0,59,29.99,9.0,WSW,9.2,-,N/A,,Overcast,240,2012-10-05 20:52:00
5:52 PM,71.1,57.0,61,29.98,10.0,West,5.8,-,N/A,,Overcast,260,2012-10-05 21:52:00
6:27 PM,66.2,55.4,68,29.99,10.0,NNW,15.0,-,N/A,,Overcast,340,2012-10-05 22:27:00
6:52 PM,63.0,53.1,70,29.97,10.0,NNW,6.9,-,N/A,,Overcast,330,2012-10-05 22:52:00
7:52 PM,60.1,52.0,75,29.98,10.0,NNW,17.3,21.9,0.00,,Overcast,330,2012-10-05 23:52:00
8:09 PM,55.4,50.0,82,30.02,10.0,NW,18.4,26.5,N/A,,Overcast,320,2012-10-06 00:09:00
8:33 PM,51.8,48.2,88,30.02,10.0,NNW,17.3,29.9,0.00,Rain,Light Rain,330,2012-10-06 00:33:00
8:52 PM,51.1,48.9,92,30.00,8.0,North,13.8,-,0.00,Rain,Rain,350,2012-10-06 00:52:00
9:52 PM,48.0,45.0,89,30.01,10.0,North,21.9,26.5,0.03,,Light Drizzle,350,2012-10-06 01:52:00
10:15 PM,46.4,42.8,87,30.04,10.0,NNW,11.5,24.2,0.00,,Overcast,340,2012-10-06 02:15:00
10:31 PM,46.4,42.8,87,30.01,10.0,North,15.0,23.0,0.00,,Overcast,360,2012-10-06 02:31:00
11:27 PM,44.6,42.8,93,30.03,7.0,North,16.1,21.9,N/A,Rain,Light Rain,350,2012-10-06 03:27:00
11:52 PM,45.0,42.1,90,30.03,10.0,North,11.5,-,0.05,Rain,Light Rain,350,2012-10-06 03:52:00